Other Public Products
Issued by NWS Charleston, SC

Current Version | Previous Version | Text Only | Print | Product List | Glossary Off
Versions: 1 2 3 4 5 6 7 8 9 10 11 12 13 14 15 16 17 18 19 20 21 22 23 24 25 26 27 28 29 30 31 32 33 34 35 36 37 38 39 40 41 42 43 44 45 46 47 48 49 50

000
FPUS82 KCHS 261726
OPUCHS

TEST...KCHS/KSAV Gateway Observations...TEST
National Weather Service Charleston SC
1200 PM EST SUN FEB 26 2017

NOTE: "fair" indicates few or no clouds below 12,000 feet with no
significant weather and/or obstructions to visibility.

SCZ050-WAZ558-NCZ071-TXZ119-213-PAZ071-DCZ001-FLZ074-172-MI076-
NYZ176-178-MAZ016-IL014-TNZ027-NJZ106-GAZ044-MD014-261800-
...Gateway Observations for Charleston International...

CITY           SKY/WX    TMP DP  RH WIND       PRES   REMARKS
Chas Airport   SUNNY     60  22  23 VRB3      30.21S
Seattle        LGT RAIN  37  35  92 E9        29.69S WCI  30
Charlotte      SUNNY     50  16  25 W3        30.21F
Dallas DFW     CLOUDY    58  41  53 S13       29.97F
Dallas Love    CLOUDY    58  41  53 S13       29.99F
Philladelphia  MOSUNNY   39  15  37 NW16G28   30.10S WCI  30
Wash National  MOSUNNY   42  17  36 NW10      30.16S
Baltimore      MOSUNNY   42  19  39 NW12G22   30.13S
Miami          MOSUNNY   79  64  60 VRB5      30.12F
Detroit        CLOUDY    35  19  52 S18       30.10S WCI  24
Newark         MOSUNNY   42  14  32 W23G30    30.03R
Laguardia      MOSUNNY   41  15  35 W18G31    30.01R
J F K          PTSUNNY   42  17  36 W17G25    30.03R
Boston Logan   MOSUNNY   42  19  39 W21G30    29.82S
Ft. Lauderdale MOSUNNY   80  66  62 NE10      30.11F
Chicago O`Hare PTSUNNY   39  17  41 SW21G38   29.96F WCI  29
Chicago Midway PTSUNNY   40  17  39 SW21G35   29.99F WCI  30
Houston Bush   PTSUNNY   71  55  56 SE17G29   30.05S
Houston Hobby  PTSUNNY   71  57  61 SE14G24   30.05S
Nashville      MOSUNNY   45  17  32 VRB3      30.26F
Atlanta        SUNNY     52  18  26 CALM      30.23S

$$

GAZ044-118-TXZ119-213-NCZ071-DCZ001-MDZ014-506-PAZ021-071-NJZ106-
NYZ176-178-MAZ106-OHZ011-021-055-MIZ076-KYZ091-ILZ014-INZ047-
MNZ060-ONZ431-261800-
...Gateway Observations for Savannah International...

CITY           SKY/WX    TMP DP  RH WIND       PRES   REMARKS
Savannah Arpt  SUNNY     59  21  23 CALM      30.23F
Atlanta        SUNNY     52  18  26 CALM      30.23S
Charlotte      SUNNY     50  16  25 W3        30.21F
Dallas DFW     CLOUDY    58  41  53 S13       29.97F
Houston Bush   PTSUNNY   71  55  56 SE17G29   30.05S
Wash National  MOSUNNY   42  17  36 NW10      30.16S
Wash Dulles    MOSUNNY   41  16  36 NW15G23   30.15R
Baltimore      MOSUNNY   42  19  39 NW12G22   30.13S
Philadelphia   MOSUNNY   39  15  37 NW16G28   30.10S WCI  30
Newark         MOSUNNY   42  14  32 W23G30    30.03R
Laguardia      MOSUNNY   41  15  35 W18G31    30.01R
J F K          PTSUNNY   42  17  36 W17G25    30.03R
Boston         MOSUNNY   42  19  39 W21G30    29.82S
Pittsburg      FLURRIES  32  18  56 W13G20    30.13F WCI  22
Akron          MOSUNNY   31  17  56 SW14      30.13F WCI  21
Cleveland      MOSUNNY   35  19  52 SW12      30.16F WCI  27
Cincinnati     SUNNY     37  15  40 S9        30.21F WCI  30
Columbus       SUNNY     34  20  55 SW9       30.21S WCI  27
Detroit        CLOUDY    35  19  52 S18       30.10S WCI  24
Chicago O`Hare PTSUNNY   39  17  41 SW21G38   29.96F WCI  29
Minneapolis    MOSUNNY   34  22  61 W14       29.78S WCI  25
Indianapolis   MOSUNNY   39  15  37 S16       30.16F WCI  30
Toronto Canada PTSUNNY   30  18  59 W17       30.04R WCI  18

$$




USA.gov is the U.S. government's official web portal to all federal, state and local government web resources and services.